Regional Weather Roundup
Issued by NWS

Home | Current Version | Previous Version | Text Only | Print | Product List | Glossary Off
Versions: 1 2 3 4 5 6 7 8 9 10 11 12 13 14 15 16 17 18 19 20 21 22 23 24 25 26 27 28 29 30 31 32 33 34 35 36 37 38 39 40 41 42 43 44 45 46 47 48 49 50

000
ASUS45 KBOU 152110
RWRCO

WEATHER ROUNDUP FOR COLORADO
NATIONAL WEATHER SERVICE DENVER/BOULDER CO
200 PM MST FRI DEC 15 2017

NOTE: "FAIR" INDICATES FEW OR NO CLOUDS BELOW 12000 FEET WITH NO
SIGNIFICANT WEATHER AND/OR OBSTRUCTIONS TO VISIBILITY.

COZ001>005-013-030-031-152200-
...NORTHWEST COLORADO...

CITY           SKY/WX    TMP DP  RH WIND       PRES   REMARKS
CRAIG          FAIR      38  12  34 NE8       30.16F
HAYDEN         FAIR      32  17  54 SW6       30.17F WCI  26
MEEKER         FAIR      46   8  21 SW13      30.16F
RABBIT EARS PA FAIR      30   1  29 W7        30.18F WCI  23
STEAMBOAT SPGS FAIR      35  14  42 CALM      30.16F
WALDEN         FAIR      34   5  29 S13G21    30.14F WCI  25
$$

COZ006>008-011-152200-
...WEST CENTRAL VALLEYS...

CITY           SKY/WX    TMP DP  RH WIND       PRES   REMARKS
GRAND JUNCTION FAIR      43  11  27 SE7       30.22F
MONTROSE       FAIR      41  10  28 N5        30.23F
EAGLE          FAIR      32  11  41 W3        30.23F
RIFLE          FAIR      40   8  26 E3        30.22F
DELTA          FAIR      44   8  22 CALM      30.23F
NUCLA          FAIR      43   1  17 W6        30.26F
$$

COZ017>023-064>068-152200-
...SOUTHWEST COLORADO...

CITY           SKY/WX    TMP DP  RH WIND       PRES   REMARKS
DURANGO        FAIR      44  18  35 VRB3      30.20F
CORTEZ         FAIR      48   3  15 W15       30.21F
PAGOSA SPRINGS FAIR      43   6  21 CALM      30.21F
TELLURIDE      FAIR      46 -12   8 W5        30.23F
WOLF CREEK PAS FAIR      32  -2  23 W3        30.32F
$$

COZ009-010-012-014-032>034-037-058>063-152200-
...CENTRAL COLORADO...

CITY           SKY/WX    TMP DP  RH WIND       PRES   REMARKS
ASPEN          FAIR      40   9  28 NW8       30.17F
BUENA VISTA    FAIR      45   3  17 SE7       30.12F
COPPER MTN     NOT AVBL
BERTHOUD PASS  FAIR      18   5  57 NW21G29   30.19S WCI   1
COTTONWOOD PAS FAIR      46  -6  11 SW5G21    30.17F
GUNNISON       FAIR      35   5  28 CALM      30.22F
KREMMLING      FAIR      34  14  44 CALM      30.22F
LEADVILLE      FAIR      39  -8  13 VRB3      30.16F
MONARCH PASS   FAIR      25   0  33 SW24G31   30.34F WCI   9
SALIDA         FAIR      49  -3  11 SW12G22   30.19F
SUNLIGHT       FAIR      32   1  27 SW6       30.27S WCI  26
WILKERSON PASS FAIR      34   1  25 W7        30.19F WCI  28
$$

COZ069>075-152200-
...SAN LUIS VALLEY/SANGRE DE CRISTO MOUNTAINS...

CITY           SKY/WX    TMP DP  RH WIND       PRES   REMARKS
ALAMOSA        FAIR      35  12  38 SW3       30.20F
DEL NORTE      FAIR      33  13  43 E6        30.21F WCI  28
LA VETA PASS   FAIR      32   5  32 SW29G39     N/A  WCI  18
SAGUACHE       FAIR      36  10  35 SE8       30.21F
$$

COZ035-036-038>040-152200-
...NORTHERN COLORADO FRONT RANGE...

CITY           SKY/WX    TMP DP  RH WIND       PRES   REMARKS
DENVER INTL AP FAIR      62   2   9 W13       29.90F
DMNS CITY PARK NOT AVBL
AURORA         MOSUNNY   62   2   9 SW8       29.92F
FRONT RANGE AP MOSUNNY   63   7  11 W7G17     29.92F
ERIE MUNI ARPT FAIR      62   0   8 W13       29.94F
BOULDER MUN AP FAIR      61   9  12 S10       29.89F
CENTENNIAL     FAIR      60   9  13 W10       29.93F
BROOMFIELD     MOSUNNY   63   7  11 W17       29.92F
FORT COLLINS   FAIR      54  23  30 S3        29.89F
LONGMONT       FAIR      62  22  21 CALM      29.89F
$$

COZ041-046-047-076>085-087-088-152200-
...PIKES PEAK/PALMER DIVIDE AND SOUTHERN FOOTHILLS...

CITY           SKY/WX    TMP DP  RH WIND       PRES   REMARKS
COLO. SPRINGS  FAIR      57  -1   9 S9        30.00F
A. F. ACADEMY  FAIR      56  -2   9 S9        29.98F
SCHRIEVER AFB  FAIR      55  -3   9 S8        29.99F
CHEYENNE MTN   FAIR      53  10  17 SE7       29.96F
ELLICOTT         N/A    N/A N/A N/A SW9       29.98F
FALCON         FAIR      56  -2   9 SW12      30.01F
FORT CARSON    FAIR      57   8  14 S5        29.97F
LIMON          FAIR      58   8  13 W8        29.95F
MONUMENT HILL  FAIR      54   7  15 W8        30.01F
CANON CITY     FAIR      63   5  10 W16G23    29.97F
WALSENBURG     FAIR      57   7  13 W18G26    30.03S
TRINIDAD       FAIR      60   5  11 NE3       30.01F
$$

COZ042>045-048>051-090-091-152200-
...NORTHEAST COLORADO...

CITY           SKY/WX    TMP DP  RH WIND       PRES   REMARKS
GREELEY ARPT   NOT AVBL
AKRON          FAIR      56  11  16 W12       29.90F
BURLINGTON     FAIR      59   4  11 SW17      29.93F
WRAY           FAIR      63   3   9 NW15      29.89F
YUMA           FAIR      59   5  11 W10       29.89F
STERLING       FAIR      48  21  34 SW6       29.88F
HOLYOKE        FAIR      61  10  13 W12       29.87F
FORT MORGAN    FAIR      52  19  27 SW5       29.91F
$$

COZ086-089-092>099-152200-
...SOUTHEAST COLORADO...

CITY           SKY/WX    TMP DP  RH WIND       PRES   REMARKS
PUEBLO         FAIR      61  13  15 CALM      29.96F
LA JUNTA       FAIR      62  14  15 W10       29.97F
LAMAR          FAIR      59  15  18 SW9       29.96F
SPRINGFIELD      N/A     57   6  13 SW8       30.00F
$$



USA.gov is the U.S. government's official web portal to all federal, state and local government web resources and services.